SCP
0 0 0 0 0 0 0 0 0 0 0 0 0 0 0 0 0 0 0 0 0 0
0 0 0 0 0 0 0 0 0 0 0 0 0 0 0 0 0 0 0 0 0 0
0 0 0 0 0 0 0 0 0 0 0 0 0 0 0 0 0 0 0 0 0 0
0 0 0 0 0 0 0 0 0 0 0 0 0 0 0 0 0 0 0 0 0 0
0 0 0 0 0 0 0 0 0 0 0 0 0 0 0 0 0 0 0 0 0 0
0 0 0 0 0 0 0 0 0 0 0 0 0 0 0 0 0 0 0 0 0 0
0 0 0 0 0 0 0 0 0 0 0 0 0 0 0 0 0 0 0 0 0 0
0 0 0 0 0 0 0 0 0 0 0 0 0 0 0 0 0 0 0 0 0 0
0 0 0 0 0 0 0 0 0 0 0 0 0 0 0 0 0 0 0 0 0 0
0 0 0 0 0 0 0 0 0 0 0 0 0 0 0 0 0 0 0 0 0 0
0 0 0 0 0 0 0 0 0 0 0 0 0 0 0 0 0 0 0 0 0 0
0 0 0 0 0 0 0 0 0 0 0 0 0 0 0 0 0 0 0 0 0 0
0 0 0 0 0 0 0 0 0 0 0 0 0 0 0 0 0 0 0 0 0 0
0 0 0 0 0 0 0 0 0 0 0 0 0 0 0 0 0 0 0 0 0 0
Wind_Speed_500mb
49 46 51 45 36 31 22 11 6 5 14 20 24 28 32 40 44 45 49 52 51 47
49 49 47 44 36 31 21 12 2 8 15 22 29 34 40 43 45 49 51 51 48 45
51 43 44 44 39 29 18 12 12 15 21 28 34 38 42 46 50 51 47 42 42 44
52 49 53 50 40 27 20 19 18 22 26 32 39 43 47 48 45 44 42 40 44 41
59 54 47 39 30 24 23 20 21 26 31 36 44 45 41 39 39 40 42 40 35 30
49 43 40 33 26 23 20 20 25 31 37 43 38 36 36 36 39 36 38 32 24 25
39 33 28 23 21 18 20 26 33 39 38 31 29 33 40 36 28 34 28 23 24 25
32 27 24 21 19 20 27 33 37 32 28 30 32 31 31 30 37 30 26 23 23 22
32 28 22 18 19 25 30 33 34 34 32 26 22 24 27 34 36 33 26 28 31 30
26 19 14 16 22 28 32 33 31 25 19 17 23 24 27 30 41 36 28 29 31 31
17 12 13 18 23 25 22 17 14 14 12 18 21 20 26 35 43 38 31 28 33 31
6 6 9 15 18 17 16 19 17 19 17 11 14 25 33 37 44 39 34 27 35 27
8 11 12 14 16 16 16 14 12 3 11 16 22 29 36 44 45 42 34 30 30 22
4 7 11 13 15 12 11 10 7 10 13 23 31 34 37 39 40 43 38 36 34 25
Wind_Direction_500mb
204 190 170 171 162 148 151 148 138 352 346 340 334 330 322 323 320 317 313 316 321 316
165 163 162 158 153 162 167 163 219 308 318 316 315 315 316 313 312 310 311 313 314 313
159 166 168 164 167 173 171 200 257 291 296 301 305 309 308 309 309 308 312 316 315 313
164 161 157 162 167 184 206 238 263 276 292 303 304 307 310 310 309 310 313 316 314 317
163 160 159 168 178 196 224 251 275 292 300 302 308 310 315 315 313 314 318 318 316 320
159 167 179 183 195 218 246 272 289 295 305 310 315 318 317 313 313 319 327 328 333 337
161 171 183 195 220 249 275 292 300 308 310 316 322 323 314 318 324 332 332 332 335 338
178 190 204 219 245 272 293 303 311 312 317 324 324 323 322 336 336 336 332 335 335 343
182 192 208 232 265 291 303 308 309 309 315 319 320 331 342 336 335 340 333 330 331 336
186 202 229 272 297 304 305 307 310 309 309 317 324 336 338 332 334 342 334 331 334 332
193 231 271 295 303 314 318 320 326 329 334 332 338 323 318 333 335 342 335 335 333 328
207 278 319 334 348 347 349 351 3 8 354 335 308 320 327 331 331 332 337 338 338 325
338 342 359 13 11 11 14 17 354 8 349 331 323 325 326 332 334 335 339 335 339 327
13 33 45 34 31 23 20 359 332 336 325 324 326 328 332 333 332 333 336 336 336 330
Wind_Speed_850mb
49 46 51 45 36 31 22 11 6 5 14 20 24 28 32 40 44 45 49 52 51 47
49 49 47 44 36 31 21 12 2 8 15 22 29 34 40 43 45 49 51 51 48 45
51 43 44 44 39 29 18 12 12 15 21 28 34 38 42 46 50 51 47 42 42 44
52 49 53 50 40 27 20 19 18 22 26 32 39 43 47 48 45 44 42 40 44 41
59 54 47 39 30 24 23 20 21 26 31 36 44 45 41 39 39 40 42 40 35 30
49 43 40 33 26 23 20 20 25 31 37 43 38 36 36 36 39 36 38 32 24 25
39 33 28 23 21 18 20 26 33 39 38 31 29 33 40 36 28 34 28 23 24 25
32 27 24 21 19 20 27 33 37 32 28 30 32 31 31 30 37 30 26 23 23 22
32 28 22 18 19 25 30 33 34 34 32 26 22 24 27 34 36 33 26 28 31 30
26 19 14 16 22 28 32 33 31 25 19 17 23 24 27 30 41 36 28 29 31 31
17 12 13 18 23 25 22 17 14 14 12 18 21 20 26 35 43 38 31 28 33 31
6 6 9 15 18 17 16 19 17 19 17 11 14 25 33 37 44 39 34 27 35 27
8 11 12 14 16 16 16 14 12 3 11 16 22 29 36 44 45 42 34 30 30 22
4 7 11 13 15 12 11 10 7 10 13 23 31 34 37 39 40 43 38 36 34 25
Wind_Direction_850mb
204 190 170 171 162 148 151 148 138 352 346 340 334 330 322 323 320 317 313 316 321 316
165 163 162 158 153 162 167 163 219 308 318 316 315 315 316 313 312 310 311 313 314 313
159 166 168 164 167 173 171 200 257 291 296 301 305 309 308 309 309 308 312 316 315 313
164 161 157 162 167 184 206 238 263 276 292 303 304 307 310 310 309 310 313 316 314 317
163 160 159 168 178 196 224 251 275 292 300 302 308 310 315 315 313 314 318 318 316 320
159 167 179 183 195 218 246 272 289 295 305 310 315 318 317 313 313 319 327 328 333 337
161 171 183 195 220 249 275 292 300 308 310 316 322 323 314 318 324 332 332 332 335 338
178 190 204 219 245 272 293 303 311 312 317 324 324 323 322 336 336 336 332 335 335 343
182 192 208 232 265 291 303 308 309 309 315 319 320 331 342 336 335 340 333 330 331 336
186 202 229 272 297 304 305 307 310 309 309 317 324 336 338 332 334 342 334 331 334 332
193 231 271 295 303 314 318 320 326 329 334 332 338 323 318 333 335 342 335 335 333 328
207 278 319 334 348 347 349 351 3 8 354 335 308 320 327 331 331 332 337 338 338 325
338 342 359 13 11 11 14 17 354 8 349 331 323 325 326 332 334 335 339 335 339 327
13 33 45 34 31 23 20 359 332 336 325 324 326 328 332 333 332 333 336 336 336 330